SIA7922 WSSS-VHHH

Flight info

Callsign SIA7922
Flight time N/A
Altitude 31000
Route VMR6A VMR M771 DUDIS/K0935F310 M771 DAGAG/K0932F320 M771 DOSUT/N0500F320 M771 DULOP/N0502F310 Q1 CARSO/N0499F320 V551 BETTY BETTY3A
Aircraft B744/H-SDE1E2E3FGHIJ2J3J4J5M1RWXY/LB1D1

Departure

Time 2026-05-05 02:26
Airport Singapore Changi Airport (WSSS)

Arrival

Time N/A
Airport Hong Kong International Airport (VHHH)
Time Latitude Longitude Altitude Speed Heading
2026-05-05 02:11 1.37546 103.99334 35 ft 0 kts 113°
2026-05-05 02:17 1.37551 103.99325 35 ft 4 kts 112°
2026-05-05 02:18 1.37560 103.99299 35 ft 4 kts 108°
2026-05-05 02:18 1.37567 103.99273 35 ft 4 kts 96°
2026-05-05 02:18 1.37569 103.99253 35 ft 4 kts 109°
2026-05-05 02:18 1.37580 103.99238 35 ft 4 kts 189°
2026-05-05 02:19 1.37604 103.99247 35 ft 4 kts 203°
2026-05-05 02:19 1.37617 103.99252 35 ft 0 kts 203°
2026-05-05 02:20 1.37615 103.99251 35 ft 2 kts 203°
2026-05-05 02:20 1.37566 103.99230 35 ft 13 kts 203°
2026-05-05 02:20 1.37446 103.99180 35 ft 23 kts 203°
2026-05-05 02:21 1.37299 103.99118 35 ft 23 kts 202°
2026-05-05 02:21 1.37213 103.99030 35 ft 18 kts 278°
2026-05-05 02:21 1.37212 103.98915 35 ft 18 kts 216°
2026-05-05 02:21 1.37096 103.98867 35 ft 18 kts 203°
2026-05-05 02:22 1.36981 103.98818 35 ft 18 kts 202°
2026-05-05 02:22 1.36851 103.98764 35 ft 25 kts 203°
2026-05-05 02:22 1.36653 103.98678 35 ft 36 kts 203°
2026-05-05 02:22 1.36428 103.98583 35 ft 34 kts 202°
2026-05-05 02:23 1.36217 103.98497 35 ft 32 kts 202°
2026-05-05 02:23 1.36021 103.98412 35 ft 30 kts 203°
2026-05-05 02:23 1.35829 103.98332 35 ft 30 kts 202°
2026-05-05 02:23 1.35636 103.98252 35 ft 30 kts 202°
2026-05-05 02:24 1.35446 103.98173 35 ft 30 kts 202°
2026-05-05 02:24 1.35253 103.98093 35 ft 30 kts 201°
2026-05-05 02:24 1.35062 103.98011 35 ft 30 kts 202°
2026-05-05 02:24 1.34977 103.97906 35 ft 18 kts 286°
2026-05-05 02:25 1.35029 103.97807 35 ft 8 kts 341°
2026-05-05 02:25 1.35103 103.97833 35 ft 26 kts 24°
2026-05-05 02:25 1.35487 103.97996 34 ft 92 kts 22°
2026-05-05 02:25 1.36257 103.98319 35 ft 146 kts 23°
2026-05-05 02:26 1.37322 103.98770 45 ft 185 kts 23°
2026-05-05 02:26 1.38530 103.99288 412 ft 190 kts 23°
2026-05-05 02:26 1.39753 103.99809 932 ft 192 kts 24°
2026-05-05 02:26 1.40999 104.00337 1344 ft 202 kts 24°
2026-05-05 02:27 1.42360 104.00914 1527 ft 223 kts 24°
2026-05-05 02:27 1.43858 104.01546 1798 ft 241 kts 23°
2026-05-05 02:27 1.45418 104.02200 2451 ft 244 kts 23°
2026-05-05 02:27 1.46980 104.02860 3135 ft 243 kts 23°
2026-05-05 02:28 1.48556 104.03493 3785 ft 244 kts 15°
2026-05-05 02:28 1.50250 104.03595 4240 ft 247 kts 354°
2026-05-05 02:28 1.51966 104.03312 4572 ft 257 kts 339°
2026-05-05 02:28 1.53612 104.02510 4896 ft 269 kts 331°
2026-05-05 02:29 1.55256 104.01605 5409 ft 276 kts 332°
2026-05-05 02:29 1.56957 104.00682 6061 ft 280 kts 332°
2026-05-05 02:29 1.58683 103.99762 6705 ft 282 kts 332°
2026-05-05 02:29 1.60439 103.98847 7339 ft 286 kts 333°
2026-05-05 02:30 1.62218 103.97935 7975 ft 289 kts 333°
2026-05-05 02:30 1.64020 103.97020 8572 ft 292 kts 333°
2026-05-05 02:30 1.65840 103.96102 9176 ft 294 kts 333°
2026-05-05 02:30 1.67678 103.95176 9757 ft 297 kts 333°
2026-05-05 02:31 1.69543 103.94238 10247 ft 305 kts 333°
2026-05-05 02:31 1.71500 103.93256 10407 ft 325 kts 333°
2026-05-05 02:31 1.73581 103.92213 10567 ft 345 kts 333°
2026-05-05 02:31 1.75811 103.91203 10665 ft 358 kts 343°
2026-05-05 02:32 1.78315 103.90850 10786 ft 372 kts 358°
2026-05-05 02:32 1.80943 103.90746 11157 ft 384 kts 358°
2026-05-05 02:32 1.83647 103.90624 11712 ft 392 kts 358°
2026-05-05 02:32 1.86388 103.90482 12401 ft 396 kts 357°
2026-05-05 02:33 1.89148 103.90326 13161 ft 398 kts 357°
2026-05-05 02:33 1.91888 103.90162 13882 ft 401 kts 357°
2026-05-05 02:33 1.94683 103.89991 14551 ft 404 kts 357°
2026-05-05 02:33 1.97506 103.89814 15188 ft 408 kts 357°
2026-05-05 02:34 2.00352 103.89634 15837 ft 411 kts 358°
2026-05-05 02:34 2.03221 103.89452 16450 ft 414 kts 358°
2026-05-05 02:34 2.06109 103.89269 17045 ft 418 kts 358°
2026-05-05 02:34 2.09023 103.89084 17627 ft 421 kts 358°
2026-05-05 02:35 2.11954 103.88900 18187 ft 424 kts 358°
2026-05-05 02:35 2.14910 103.88712 18727 ft 427 kts 358°
2026-05-05 02:35 2.17896 103.88523 19221 ft 431 kts 358°
2026-05-05 02:35 2.20902 103.88333 19693 ft 435 kts 358°
2026-05-05 02:36 2.23943 103.88141 20159 ft 439 kts 358°
2026-05-05 02:36 2.27005 103.87948 20608 ft 443 kts 358°
2026-05-05 02:36 2.30056 103.87754 21042 ft 447 kts 358°
2026-05-05 02:36 2.33170 103.87556 21474 ft 450 kts 358°
2026-05-05 02:37 2.36299 103.87377 21861 ft 449 kts
2026-05-05 02:37 2.39395 103.87776 22032 ft 453 kts 19°
2026-05-05 02:37 2.42209 103.89152 22382 ft 448 kts 34°
2026-05-05 02:37 2.44823 103.90876 22724 ft 452 kts 34°
2026-05-05 02:38 2.47483 103.92580 23081 ft 456 kts 34°
2026-05-05 02:38 2.50176 103.94274 23472 ft 459 kts 33°
2026-05-05 02:38 2.52894 103.95968 23856 ft 461 kts 33°
2026-05-05 02:38 2.55625 103.97665 24204 ft 464 kts 33°
2026-05-05 02:39 2.58376 103.99374 24541 ft 467 kts 33°
2026-05-05 02:39 2.61142 104.01092 24880 ft 469 kts 33°
2026-05-05 02:39 2.63919 104.02818 25214 ft 471 kts 33°
2026-05-05 02:39 2.66712 104.04558 25526 ft 474 kts 33°
2026-05-05 02:40 2.69518 104.06304 25850 ft 476 kts 33°
2026-05-05 02:40 2.72340 104.08060 26168 ft 479 kts 33°